Minot AFB, ND

8:56 PM CST on November 14, 2019 (GMT -0600)
Minot Air Force Base

Weather History for KMIB - September, 2019

Change the Weather History Date:

Tuesday, September 10, 2019

  Actual Average Record
Temperature  
Mean Temperature 58 °F -  
Max Temperature 63 °F 71 °F 96 °F (1998)
Min Temperature 53 °F 46 °F 35 °F (2015)
Degree Days  
Heating Degree Days 7    
Growing Degree Days 8 (Base 50)    
Moisture  
Dew Point 55 °F    
Average Humidity 96    
Maximum Humidity 100    
Minimum Humidity 77    
Precipitation  
Precipitation 0.03 in - - ()
Sea Level Pressure  
Sea Level Pressure 29.95 in    
Wind  
Wind Speed 6 mph (ENE)    
Max Wind Speed 9 mph    
Max Gust Speed -    
Visibility 5 miles    
Events Rain    
Averages and records for this station are not official NWS values.
T = Trace of Precipitation, MM = Missing Value Source: NWS Daily Summary

Daily Weather History Graph

Daily Weather History Graph

Search for Another Location

Airport or City:

Astronomy

Sep. 10, 2019 Rise Set
Actual Time 7:15 AM CDT 8:08 PM CDT
Civil Twilight 6:43 AM CDT 8:40 PM CDT
Nautical Twilight 6:05 AM CDT 9:18 PM CDT
Astronomical Twilight 5:24 AM CDT 9:58 PM CDT
Moon 7:05 PM CDT (9/10) 3:21 AM CDT (9/10)
Length of Visible Light 13h 57m
Length of Day
12h 53m
Waxing Gibbous, 89% of the Moon is Illuminated
Sep 10
Waxing Gibbous
Sep 13
Full
Sep 21
Last Quarter
Sep 28
New
Oct 5
First Quarter

Hourly Weather History & Observations

Time (CDT) Temp. Dew Point Humidity Pressure Visibility Wind Dir Wind Speed Gust Speed Precip Events Conditions
12:16 AM 55.4 °F 55.4 °F 100% 29.82 in 2.5 mi NNE 4.6 mph - N/A Rain Light Rain
12:37 AM 55.4 °F 55.4 °F 100% 29.82 in 2.5 mi NE 6.9 mph - N/A Rain Light Rain
12:54 AM 55.4 °F 55.4 °F 100% 29.83 in 2.2 mi NE 6.9 mph - N/A   Overcast
12:56 AM 54.7 °F 54.3 °F 99% 29.83 in 2.2 mi NE 6.9 mph - 0.01 in   Overcast
1:36 AM 55.4 °F 53.6 °F 94% 29.84 in 1.6 mi NE 8.1 mph - N/A   Overcast
1:46 AM 55.4 °F 53.6 °F 94% 29.84 in 3.0 mi ENE 6.9 mph - N/A   Overcast
1:56 AM 54.5 °F 54.1 °F 99% 29.84 in 8.0 mi NE 8.1 mph - 0.00 in   Overcast
2:06 AM 53.6 °F 53.6 °F 100% 29.84 in 10.0 mi ENE 6.9 mph - N/A   Overcast
2:36 AM 55.4 °F 53.6 °F 94% 29.85 in 1.8 mi NE 6.9 mph - N/A   Overcast
2:56 AM 54.3 °F 54.0 °F 99% 29.85 in 2.0 mi ENE 6.9 mph - N/A   Overcast
3:06 AM 53.6 °F 53.6 °F 100% 29.85 in 5.0 mi NE 5.8 mph - N/A   Overcast
3:26 AM 53.6 °F 53.6 °F 100% 29.86 in 10.0 mi East 4.6 mph - N/A   Overcast
3:56 AM 54.1 °F 53.8 °F 99% 29.87 in 2.8 mi ENE 4.6 mph - N/A   Overcast
4:06 AM 53.6 °F 53.6 °F 100% 29.87 in 4.0 mi ENE 4.6 mph - N/A   Overcast
4:26 AM 53.6 °F 53.6 °F 100% 29.87 in 2.5 mi ENE 5.8 mph - N/A   Overcast
4:31 AM 53.6 °F 53.6 °F 100% 29.87 in 3.0 mi ENE 5.8 mph - N/A   Overcast
4:46 AM 53.6 °F 53.6 °F 100% 29.88 in 10.0 mi ENE 4.6 mph - N/A   Overcast
4:56 AM 53.8 °F 53.4 °F 99% 29.88 in 6.0 mi ENE 6.9 mph - N/A   Overcast
5:01 AM 53.6 °F 53.6 °F 100% 29.89 in 5.0 mi ENE 5.8 mph - N/A   Overcast
5:21 AM 53.6 °F 53.6 °F 100% 29.89 in 5.0 mi ENE 4.6 mph - N/A   Overcast
5:51 AM 53.6 °F 53.6 °F 100% 29.90 in 2.2 mi ENE 6.9 mph - N/A   Overcast
5:56 AM 53.6 °F 53.2 °F 99% 29.90 in 1.9 mi ENE 6.9 mph - N/A   Overcast
6:06 AM 53.6 °F 53.6 °F 100% 29.90 in 2.8 mi ENE 6.9 mph - N/A   Overcast
6:07 AM 53.6 °F 53.6 °F 100% 29.90 in 2.8 mi ENE 8.1 mph - N/A   Light Drizzle
6:17 AM 53.6 °F 53.6 °F 100% 29.90 in 4.0 mi East 5.8 mph - N/A   Light Drizzle
6:19 AM 53.6 °F 53.6 °F 100% 29.90 in 4.0 mi East 5.8 mph - N/A   Overcast
6:22 AM 53.6 °F 53.6 °F 100% 29.91 in 4.0 mi ENE 4.6 mph - N/A   Light Drizzle
6:32 AM 53.6 °F 53.6 °F 100% 29.90 in 2.5 mi NE 5.8 mph - N/A Rain Light Rain
6:35 AM 53.6 °F 53.6 °F 100% 29.90 in 2.2 mi ENE 5.8 mph - N/A   Overcast
6:36 AM 53.6 °F 53.6 °F 100% 29.90 in 2.2 mi ENE 5.8 mph - N/A Rain Light Rain
6:55 AM 53.6 °F 53.6 °F 100% 29.91 in 4.0 mi ENE 4.6 mph - N/A   Overcast
6:56 AM 53.2 °F 52.9 °F 99% 29.91 in 4.0 mi ENE 5.8 mph - 0.01 in   Overcast
7:31 AM 53.6 °F 53.6 °F 100% 29.92 in 10.0 mi ENE 5.8 mph - N/A   Overcast
7:51 AM 53.6 °F 53.6 °F 100% 29.93 in 2.0 mi East 5.8 mph - N/A   Overcast
7:56 AM 53.2 °F 52.9 °F 99% 29.92 in 1.8 mi East 5.8 mph - N/A   Overcast
8:21 AM 53.6 °F 53.6 °F 100% 29.93 in 1.6 mi East 6.9 mph - N/A   Overcast
8:41 AM 53.6 °F 53.6 °F 100% 29.94 in 1.4 mi East 8.1 mph - N/A   Overcast
8:51 AM 53.6 °F 53.6 °F 100% 29.95 in 1.5 mi ESE 6.9 mph - N/A   Overcast
8:56 AM 53.6 °F 53.2 °F 99% 29.95 in 1.4 mi ESE 5.8 mph - N/A   Overcast
9:06 AM 53.6 °F 53.6 °F 100% 29.95 in 1.1 mi East 8.1 mph - N/A   Overcast
9:11 AM 53.6 °F 53.6 °F 100% 29.95 in 1.0 mi East 9.2 mph - N/A   Overcast
9:31 AM 53.6 °F 53.6 °F 100% 29.97 in 1.1 mi East 5.8 mph - N/A   Overcast
9:51 AM 55.4 °F 53.6 °F 94% 29.97 in 1.2 mi ESE 6.9 mph - N/A   Overcast
9:56 AM 54.5 °F 54.1 °F 99% 29.97 in 1.5 mi East 5.8 mph - N/A   Overcast
10:06 AM 55.4 °F 53.6 °F 94% 29.98 in 1.8 mi East 8.1 mph - N/A   Overcast
10:16 AM 55.4 °F 55.4 °F 100% 29.98 in 2.0 mi East 8.1 mph - N/A   Overcast
10:26 AM 55.4 °F 55.4 °F 100% 29.98 in 3.0 mi East 6.9 mph - N/A   Overcast
10:56 AM 55.8 °F 55.4 °F 99% 29.98 in 9.0 mi East 8.1 mph - N/A   Overcast
11:56 AM 55.4 °F 55.4 °F 100% 29.96 in 9.0 mi East 6.9 mph - N/A   Overcast
12:44 PM 57.2 °F 57.2 °F 100% 30.00 in 5.0 mi East 8.1 mph - N/A   Overcast
12:56 PM 57.9 °F 57.0 °F 97% 30.00 in 2.8 mi East 9.2 mph - N/A   Overcast
1:06 PM 57.2 °F 57.2 °F 100% 30.00 in 5.0 mi ESE 6.9 mph - N/A   Overcast
1:11 PM 59.0 °F 57.2 °F 94% 29.99 in 5.0 mi ESE 6.9 mph - N/A   Overcast
1:26 PM 59.0 °F 57.2 °F 94% 30.01 in 9.0 mi East 5.8 mph - N/A   Overcast
2:11 PM 60.8 °F 55.4 °F 82% 30.01 in 10.0 mi East 6.9 mph - N/A   Overcast
2:26 PM 59.0 °F 55.4 °F 88% 30.01 in 10.0 mi ESE 4.6 mph - N/A   Overcast
2:45 PM 60.8 °F 57.2 °F 88% 30.01 in 4.0 mi East 5.8 mph - N/A   Light Drizzle
2:53 PM 59.0 °F 57.2 °F 94% 30.03 in 6.0 mi East 4.6 mph - N/A   Overcast
2:56 PM 59.4 °F 56.5 °F 90% 30.03 in 7.0 mi East 4.6 mph - 0.00 in   Overcast
3:11 PM 59.0 °F 57.2 °F 94% 30.03 in 8.0 mi Calm Calm - N/A   Light Drizzle
3:20 PM 59.0 °F 57.2 °F 94% 30.01 in 2.8 mi ENE 4.6 mph - N/A Rain Light Rain
3:27 PM 59.0 °F 57.2 °F 94% 30.01 in 2.5 mi ENE 4.6 mph - N/A Rain Light Rain
3:56 PM 58.6 °F 57.2 °F 95% 30.03 in 9.0 mi ENE 8.1 mph - 0.01 in   Overcast
4:01 PM 59.0 °F 57.2 °F 94% 30.01 in 10.0 mi ENE 8.1 mph - N/A   Overcast
4:22 PM 60.8 °F 57.2 °F 88% 30.01 in 10.0 mi East 9.2 mph - N/A   Mostly Cloudy
4:56 PM 63.1 °F 56.8 °F 80% 30.02 in 10.0 mi East 6.9 mph - N/A   Mostly Cloudy
5:39 PM 62.6 °F 55.4 °F 77% 30.03 in 10.0 mi ESE 8.1 mph - N/A   Mostly Cloudy
5:56 PM 62.6 °F 55.6 °F 78% 30.04 in 10.0 mi ESE 5.8 mph - N/A   Overcast
6:56 PM 62.6 °F 55.2 °F 77% 30.04 in 10.0 mi East 8.1 mph - N/A   Partly Cloudy
7:56 PM 59.5 °F 54.7 °F 84% 30.05 in 10.0 mi East 5.8 mph - N/A   Clear
8:56 PM 56.5 °F 53.2 °F 89% 30.07 in 10.0 mi East 5.8 mph - N/A   Partly Cloudy
9:56 PM 55.6 °F 52.3 °F 89% 30.08 in 10.0 mi East 9.2 mph - N/A   Clear
10:56 PM 54.3 °F 52.0 °F 92% 30.10 in 10.0 mi East 8.1 mph - N/A   Mostly Cloudy
11:46 PM 53.6 °F 51.8 °F 94% 30.12 in 10.0 mi East 9.2 mph - N/A   Mostly Cloudy
11:56 PM 54.0 °F 52.0 °F 93% 30.13 in 10.0 mi East 9.2 mph - N/A   Mostly Cloudy